Simultaneous Nadir Overpasses (SNOs) Predictions

Prediction of SNOs between AQUA and METOP-C Satellite Orbit:

Table of predicted SNOs for the next 14.0 days since TLE Epoch: 10/8/2022
Index Date (AQUA) Time (AQUA) Lat,Lon (AQUA) SZA (AQUA ) Date (METOP-C) Time (METOP-C) Lat,Lon (METOP-C) SZA (METOP-C ) Distance(km) Time Diff (sec)
1 10/08/2022 14:38:44 -73.61, 136.18 100.45 10/08/2022 14:37:35 -73.58, 134.30 100.46 59.16 69
2 10/08/2022 15:28:20 74.09, -57.23 80.05 10/08/2022 15:28:04 74.09, -57.16 80.05 2.30 16
3 10/08/2022 16:17:46 -74.14, 110.29 99.89 10/08/2022 16:18:45 -74.16, 110.35 99.87 2.81 59
4 10/11/2022 10:12:15 -74.05,-158.12 98.94 10/11/2022 10:11:51 -74.05,-158.17 98.94 1.64 24
5 10/11/2022 11:01:43 74.11, 9.38 81.14 10/11/2022 11:02:29 74.10, 9.28 81.13 3.24 46
6 10/14/2022 04:56:11 74.04, 100.94 82.09 10/14/2022 04:55:34 74.02, 100.84 82.08 3.69 37
7 10/14/2022 05:45:38 -74.14, -91.65 97.80 10/14/2022 05:46:15 -74.12, -91.62 97.82 3.06 37
8 10/16/2022 23:40:03 -74.03, 0.02 96.90 10/16/2022 23:39:19 -74.04, -0.06 96.89 2.95 44
9 10/17/2022 00:29:31 74.09, 167.50 83.18 10/17/2022 00:29:56 74.12, 167.47 83.21 3.07 25
10 10/19/2022 18:23:57 74.04,-100.97 84.13 10/19/2022 18:23:01 74.02,-101.02 84.11 2.36 56
11 10/19/2022 19:13:23 -74.09, 66.56 95.82 10/19/2022 19:13:43 -74.08, 66.44 95.83 3.75 20



Historial Predications of SNOs between AQUA and METOP-C
